Time,TemperatureF,DewpointF,PressureIn,WindDirection,WindDirectionDegrees,WindSpeedMPH,WindSpeedGustMPH,Humidity,HourlyPrecipIn,Conditions,Clouds,dailyrainin,SoftwareType,DateUTC
2013-09-03 00:03:00,82.9,72.5,29.89,SSE,158,0.0,0.0,71,0.00,,,0.00,WUHU216HW,2013-09-03 05:03:00,
2013-09-03 00:08:00,82.9,72.5,29.90,SSE,158,0.0,0.0,71,0.00,,,0.00,WUHU216HW,2013-09-03 05:08:00,
2013-09-03 00:13:00,82.9,72.9,29.90,SSE,158,0.0,0.0,72,0.00,,,0.00,WUHU216HW,2013-09-03 05:13:00,
2013-09-03 00:18:00,82.9,72.9,29.89,SSE,158,0.0,0.0,72,0.00,,,0.00,WUHU216HW,2013-09-03 05:18:00,
2013-09-03 00:23:00,82.9,73.3,29.90,SSE,158,0.0,0.0,73,0.00,,,0.00,WUHU216HW,2013-09-03 05:23:00,
2013-09-03 00:28:00,82.9,73.3,29.90,SSE,158,0.0,0.0,73,0.00,,,0.00,WUHU216HW,2013-09-03 05:28:00,
2013-09-03 00:33:00,83.1,73.9,29.90,SSE,158,0.0,0.0,74,0.00,,,0.00,WUHU216HW,2013-09-03 05:33:00,
2013-09-03 00:38:00,83.1,73.9,29.90,SSE,158,0.0,0.0,74,0.00,,,0.00,WUHU216HW,2013-09-03 05:38:00,
2013-09-03 00:43:00,82.9,73.7,29.90,SSE,158,0.0,0.0,74,0.00,,,0.00,WUHU216HW,2013-09-03 05:43:00,
2013-09-03 00:48:00,82.9,73.7,29.90,SSE,158,0.0,0.0,74,0.00,,,0.00,WUHU216HW,2013-09-03 05:48:00,
2013-09-03 00:53:00,82.9,73.7,29.90,SSE,158,0.0,0.0,74,0.00,,,0.00,WUHU216HW,2013-09-03 05:53:00,
2013-09-03 00:58:00,82.9,73.7,29.90,SSE,158,0.0,0.0,74,0.00,,,0.00,WUHU216HW,2013-09-03 05:58:00,
2013-09-03 01:03:00,82.9,73.7,29.91,SSE,158,0.0,0.0,74,0.00,,,0.00,WUHU216HW,2013-09-03 06:03:00,
2013-09-03 01:08:00,82.7,74.0,29.90,SSE,158,0.0,0.0,75,0.00,,,0.00,WUHU216HW,2013-09-03 06:08:00,
2013-09-03 01:13:00,82.9,74.1,29.91,SSE,158,0.0,0.0,75,0.00,,,0.00,WUHU216HW,2013-09-03 06:13:00,
2013-09-03 01:18:00,82.9,74.1,29.91,SSE,158,0.0,0.0,75,0.00,,,0.00,WUHU216HW,2013-09-03 06:18:00,
2013-09-03 01:23:00,82.9,74.1,29.91,SSE,158,0.0,0.0,75,0.00,,,0.00,WUHU216HW,2013-09-03 06:23:00,
2013-09-03 01:28:00,82.9,74.1,29.91,SSE,158,0.0,0.0,75,0.00,,,0.00,WUHU216HW,2013-09-03 06:28:00,
2013-09-03 01:33:00,82.9,74.1,29.91,SSE,158,0.0,0.0,75,0.00,,,0.00,WUHU216HW,2013-09-03 06:33:00,
2013-09-03 01:38:00,82.9,74.1,29.91,SSE,158,0.0,0.0,75,0.00,,,0.00,WUHU216HW,2013-09-03 06:38:00,
2013-09-03 01:43:00,82.9,74.1,29.91,NW,315,0.0,0.0,75,0.00,,,0.00,WUHU216HW,2013-09-03 06:43:00,
2013-09-03 01:48:00,82.9,73.7,29.92,NNW,338,0.0,0.0,74,0.00,,,0.00,WUHU216HW,2013-09-03 06:48:00,
2013-09-03 01:53:00,82.9,73.3,29.91,North,0,0.0,0.0,73,0.00,,,0.00,WUHU216HW,2013-09-03 06:53:00,
2013-09-03 01:58:00,82.9,72.9,29.91,North,0,0.0,0.0,72,0.00,,,0.00,WUHU216HW,2013-09-03 06:58:00,
2013-09-03 02:03:00,82.9,72.5,29.91,North,0,0.0,0.0,71,0.00,,,0.00,WUHU216HW,2013-09-03 07:03:00,
2013-09-03 02:08:00,82.9,72.1,29.91,North,0,0.0,0.0,70,0.00,,,0.00,WUHU216HW,2013-09-03 07:08:00,
2013-09-03 02:13:00,82.9,71.2,29.91,NNW,338,0.0,0.0,68,0.00,,,0.00,WUHU216HW,2013-09-03 07:13:00,
2013-09-03 02:18:00,82.7,70.6,29.91,North,0,0.0,0.0,67,0.00,,,0.00,WUHU216HW,2013-09-03 07:18:00,
2013-09-03 02:23:00,82.7,69.7,29.91,North,0,0.0,0.0,66,0.00,,,0.00,WUHU216HW,2013-09-03 07:23:00,
2013-09-03 02:28:00,82.5,69.0,29.91,NNW,338,0.0,0.0,64,0.00,,,0.00,WUHU216HW,2013-09-03 07:28:00,
2013-09-03 02:33:00,82.5,69.0,29.91,NNW,338,0.0,0.0,64,0.00,,,0.00,WUHU216HW,2013-09-03 07:33:00,
2013-09-03 02:38:00,82.5,69.0,29.90,NNW,338,0.0,0.0,64,0.00,,,0.00,WUHU216HW,2013-09-03 07:38:00,
2013-09-03 02:43:00,82.2,68.7,29.90,NNW,338,0.0,0.0,64,0.00,,,0.00,WUHU216HW,2013-09-03 07:43:00,
2013-09-03 02:48:00,82.2,68.7,29.91,NNW,338,0.0,0.0,64,0.00,,,0.00,WUHU216HW,2013-09-03 07:48:00,
2013-09-03 02:53:00,82.0,69.0,29.90,NNW,338,0.0,0.0,65,0.00,,,0.00,WUHU216HW,2013-09-03 07:53:00,
2013-09-03 02:58:00,81.8,68.8,29.90,NNW,338,0.0,0.0,65,0.00,,,0.00,WUHU216HW,2013-09-03 07:58:00,
2013-09-03 03:03:00,81.6,69.1,29.90,NNW,338,0.0,0.0,66,0.00,,,0.00,WUHU216HW,2013-09-03 08:03:00,
2013-09-03 03:08:00,81.6,69.1,29.90,NNW,338,0.0,0.0,66,0.00,,,0.00,WUHU216HW,2013-09-03 08:08:00,
2013-09-03 03:13:00,81.6,68.7,29.91,NNW,338,0.0,0.0,65,0.00,,,0.00,WUHU216HW,2013-09-03 08:13:00,
2013-09-03 03:18:00,81.6,68.2,29.91,NNW,338,0.0,0.0,64,0.00,,,0.00,WUHU216HW,2013-09-03 08:18:00,
2013-09-03 03:23:00,81.6,68.2,29.91,NNW,338,0.0,0.0,64,0.00,,,0.00,WUHU216HW,2013-09-03 08:23:00,
2013-09-03 03:28:00,81.5,68.0,29.91,NNW,338,0.0,0.0,64,0.00,,,0.00,WUHU216HW,2013-09-03 08:28:00,
2013-09-03 03:33:00,81.3,67.4,29.90,NNW,338,0.0,0.0,63,0.00,,,0.00,WUHU216HW,2013-09-03 08:33:00,
2013-09-03 03:38:00,81.3,67.4,29.91,NNW,338,0.0,0.0,63,0.00,,,0.00,WUHU216HW,2013-09-03 08:38:00,
2013-09-03 03:43:00,81.3,67.4,29.90,NNW,338,0.0,0.0,63,0.00,,,0.00,WUHU216HW,2013-09-03 08:43:00,
2013-09-03 03:48:00,81.3,67.4,29.91,NNW,338,0.0,0.0,63,0.00,,,0.00,WUHU216HW,2013-09-03 08:48:00,
2013-09-03 03:53:00,81.1,67.3,29.91,NNW,338,0.0,0.0,63,0.00,,,0.00,WUHU216HW,2013-09-03 08:53:00,
2013-09-03 03:58:00,81.1,66.8,29.91,NNW,338,0.0,0.0,62,0.00,,,0.00,WUHU216HW,2013-09-03 08:58:00,
2013-09-03 04:03:00,80.9,66.7,29.91,NNW,338,0.0,0.0,62,0.00,,,0.00,WUHU216HW,2013-09-03 09:03:00,
2013-09-03 04:08:00,80.9,67.6,29.91,NNW,338,0.0,0.0,64,0.00,,,0.00,WUHU216HW,2013-09-03 09:08:00,
2013-09-03 04:13:00,80.9,67.6,29.91,NNW,338,0.0,0.0,64,0.00,,,0.00,WUHU216HW,2013-09-03 09:13:00,
2013-09-03 04:18:00,80.7,67.4,29.91,NNW,338,0.0,0.0,64,0.00,,,0.00,WUHU216HW,2013-09-03 09:18:00,
2013-09-03 04:23:00,80.7,67.4,29.91,NNW,338,0.0,0.0,64,0.00,,,0.00,WUHU216HW,2013-09-03 09:23:00,
2013-09-03 04:28:00,80.6,67.7,29.91,NNW,338,0.0,0.0,65,0.00,,,0.00,WUHU216HW,2013-09-03 09:28:00,
2013-09-03 04:33:00,80.6,68.1,29.91,NNW,338,0.0,0.0,66,0.00,,,0.00,WUHU216HW,2013-09-03 09:33:00,
2013-09-03 04:38:00,80.4,68.0,29.91,NNW,338,0.0,0.0,66,0.00,,,0.00,WUHU216HW,2013-09-03 09:38:00,
2013-09-03 04:43:00,80.4,68.4,29.91,NNW,338,0.0,0.0,67,0.00,,,0.00,WUHU216HW,2013-09-03 09:43:00,
2013-09-03 04:48:00,80.0,68.0,29.91,NNW,338,0.0,0.0,67,0.00,,,0.00,WUHU216HW,2013-09-03 09:48:00,
2013-09-03 04:53:00,79.8,68.3,29.91,NNW,338,0.0,0.0,68,0.00,,,0.00,WUHU216HW,2013-09-03 09:53:00,
2013-09-03 04:58:00,79.8,68.3,29.91,NNW,338,0.0,0.0,68,0.00,,,0.00,WUHU216HW,2013-09-03 09:58:00,
2013-09-03 05:01:00,79.8,67.9,29.92,NNW,338,0.0,0.0,67,0.00,,,0.00,WUHU216HW,2013-09-03 10:01:00,
2013-09-03 05:08:00,79.8,67.4,29.92,NNW,338,0.0,0.0,66,0.00,,,0.00,WUHU216HW,2013-09-03 10:08:00,
2013-09-03 05:14:00,79.8,67.0,29.92,NNW,338,0.0,0.0,65,0.00,,,0.00,WUHU216HW,2013-09-03 10:14:00,
2013-09-03 05:30:00,79.7,66.8,29.92,NNW,338,0.0,0.0,65,0.00,,,0.00,WUHU216HW,2013-09-03 10:30:00,
2013-09-03 05:35:00,79.7,66.8,29.93,NNW,338,0.0,0.0,65,0.00,,,0.00,WUHU216HW,2013-09-03 10:35:00,
2013-09-03 05:40:00,79.5,66.8,29.92,NNW,338,0.0,0.0,65,0.00,,,0.00,WUHU216HW,2013-09-03 10:40:00,
2013-09-03 05:45:00,79.5,66.7,29.92,NNW,338,0.0,0.0,65,0.00,,,0.00,WUHU216HW,2013-09-03 10:45:00,
2013-09-03 05:50:00,79.5,67.1,29.92,NNW,338,0.0,0.0,66,0.00,,,0.00,WUHU216HW,2013-09-03 10:50:00,
2013-09-03 05:55:00,79.5,67.1,29.92,NNW,338,0.0,0.0,66,0.00,,,0.00,WUHU216HW,2013-09-03 10:55:00,
2013-09-03 06:00:00,79.3,66.9,29.92,NNW,338,0.0,0.0,66,0.00,,,0.00,WUHU216HW,2013-09-03 11:00:00,
2013-09-03 06:05:00,79.3,66.9,29.93,NNW,338,0.0,0.0,66,0.00,,,0.00,WUHU216HW,2013-09-03 11:05:00,
2013-09-03 06:10:00,79.1,66.9,29.93,NNW,338,0.0,0.0,66,0.00,,,0.00,WUHU216HW,2013-09-03 11:10:00,
2013-09-03 06:15:00,78.9,67.0,29.93,NNW,338,0.0,0.0,67,0.00,,,0.00,WUHU216HW,2013-09-03 11:15:00,
2013-09-03 06:20:00,78.9,66.6,29.93,NNW,338,0.0,0.0,66,0.00,,,0.00,WUHU216HW,2013-09-03 11:20:00,
2013-09-03 06:25:00,78.9,67.0,29.93,NNW,338,0.0,0.0,67,0.00,,,0.00,WUHU216HW,2013-09-03 11:25:00,
2013-09-03 06:30:00,78.9,66.6,29.93,NNW,338,0.0,0.0,66,0.00,,,0.00,WUHU216HW,2013-09-03 11:30:00,
2013-09-03 06:35:00,78.8,66.4,29.93,NNW,338,0.0,0.0,66,0.00,,,0.00,WUHU216HW,2013-09-03 11:35:00,
2013-09-03 06:40:00,78.6,66.7,29.93,NNW,338,0.0,0.0,67,0.00,,,0.00,WUHU216HW,2013-09-03 11:40:00,
2013-09-03 06:45:00,78.6,66.7,29.93,NNW,338,0.0,0.0,67,0.00,,,0.00,WUHU216HW,2013-09-03 11:45:00,
2013-09-03 06:50:00,78.6,66.7,29.93,NNW,338,0.0,0.0,67,0.00,,,0.00,WUHU216HW,2013-09-03 11:50:00,
2013-09-03 06:55:00,78.6,67.1,29.93,North,0,0.0,0.0,68,0.00,,,0.00,WUHU216HW,2013-09-03 11:55:00,
2013-09-03 07:00:00,78.6,67.1,29.93,NNW,338,0.0,0.0,68,0.00,,,0.00,WUHU216HW,2013-09-03 12:00:00,
2013-09-03 07:05:00,78.6,66.7,29.94,NNW,338,0.0,0.0,67,0.00,,,0.00,WUHU216HW,2013-09-03 12:05:00,
2013-09-03 07:10:00,78.6,66.2,29.94,NNW,338,0.0,0.0,67,0.00,,,0.00,WUHU216HW,2013-09-03 12:10:00,
2013-09-03 07:15:00,78.6,66.2,29.94,NNW,338,0.0,0.0,66,0.00,,,0.00,WUHU216HW,2013-09-03 12:15:00,
2013-09-03 07:20:00,78.6,66.2,29.94,North,0,0.0,0.0,66,0.00,,,0.00,WUHU216HW,2013-09-03 12:20:00,
2013-09-03 07:25:00,78.6,66.2,29.94,North,0,0.0,0.0,66,0.00,,,0.00,WUHU216HW,2013-09-03 12:25:00,
2013-09-03 07:30:00,78.6,66.2,29.94,North,0,0.0,0.0,66,0.00,,,0.00,WUHU216HW,2013-09-03 12:30:00,
2013-09-03 07:35:00,78.6,66.2,29.94,NNW,338,0.0,0.0,66,0.00,,,0.00,WUHU216HW,2013-09-03 12:35:00,
2013-09-03 07:40:00,78.8,66.4,29.94,North,0,0.0,0.0,66,0.00,,,0.00,WUHU216HW,2013-09-03 12:40:00,
2013-09-03 07:45:00,78.9,66.6,29.95,North,0,0.0,0.0,66,0.00,,,0.00,WUHU216HW,2013-09-03 12:45:00,
2013-09-03 07:50:00,78.9,66.6,29.95,North,0,0.0,0.0,66,0.00,,,0.00,WUHU216HW,2013-09-03 12:50:00,
2013-09-03 07:55:00,78.9,67.0,29.95,North,0,0.0,0.0,67,0.00,,,0.00,WUHU216HW,2013-09-03 12:55:00,
2013-09-03 08:00:00,78.9,67.0,29.94,North,0,0.0,0.0,67,0.00,,,0.00,WUHU216HW,2013-09-03 13:00:00,
2013-09-03 08:05:00,78.9,67.0,29.95,North,0,0.0,0.0,67,0.00,,,0.00,WUHU216HW,2013-09-03 13:05:00,
2013-09-03 08:10:00,79.1,66.7,29.95,North,0,0.0,0.0,66,0.00,,,0.00,WUHU216HW,2013-09-03 13:10:00,
2013-09-03 08:15:00,79.1,66.7,29.95,North,0,0.0,0.0,66,0.00,,,0.00,WUHU216HW,2013-09-03 13:15:00,
2013-09-03 08:20:00,79.3,66.9,29.95,North,0,0.0,6.0,66,0.00,,,0.00,WUHU216HW,2013-09-03 13:20:00,
2013-09-03 08:25:00,79.5,67.1,29.95,NNE,23,0.0,6.0,66,0.00,,,0.00,WUHU216HW,2013-09-03 13:25:00,
2013-09-03 08:30:00,79.5,67.1,29.95,NNE,23,0.0,0.0,66,0.00,,,0.00,WUHU216HW,2013-09-03 13:30:00,
2013-09-03 08:35:00,79.7,66.8,29.95,NNW,338,3.3,3.3,65,0.00,,,0.00,WUHU216HW,2013-09-03 13:35:00,
2013-09-03 08:40:00,79.8,67.0,29.95,NNW,338,0.0,3.3,65,0.00,,,0.00,WUHU216HW,2013-09-03 13:40:00,
2013-09-03 08:45:00,80.2,66.9,29.95,North,0,0.0,3.3,64,0.00,,,0.00,WUHU216HW,2013-09-03 13:45:00,
2013-09-03 08:50:00,80.2,66.9,29.96,North,0,0.0,0.0,64,0.00,,,0.00,WUHU216HW,2013-09-03 13:50:00,
2013-09-03 08:55:00,80.4,67.1,29.96,North,0,0.0,0.0,64,0.00,,,0.00,WUHU216HW,2013-09-03 13:55:00,
2013-09-03 09:00:00,80.4,67.1,29.96,North,0,0.0,0.0,64,0.00,,,0.00,WUHU216HW,2013-09-03 14:00:00,
2013-09-03 09:05:00,80.7,67.4,29.96,NNE,23,0.0,0.0,64,0.00,,,0.00,WUHU216HW,2013-09-03 14:05:00,
2013-09-03 09:10:00,80.9,67.6,29.96,North,0,0.0,0.0,64,0.00,,,0.00,WUHU216HW,2013-09-03 14:10:00,
2013-09-03 09:15:00,81.1,67.3,29.96,NNW,338,0.0,0.0,63,0.00,,,0.00,WUHU216HW,2013-09-03 14:15:00,
2013-09-03 09:20:00,81.5,67.1,29.96,NNE,23,0.0,0.0,62,0.00,,,0.00,WUHU216HW,2013-09-03 14:20:00,
2013-09-03 09:25:00,81.6,67.3,29.96,NNE,23,0.0,0.0,62,0.00,,,0.00,WUHU216HW,2013-09-03 14:25:00,
2013-09-03 09:30:00,82.0,67.6,29.96,North,0,0.0,0.0,62,0.00,,,0.00,WUHU216HW,2013-09-03 14:30:00,
2013-09-03 09:35:00,82.2,67.8,29.96,NNW,338,1.1,1.1,62,0.00,,,0.00,WUHU216HW,2013-09-03 14:35:00,
2013-09-03 09:40:00,82.2,67.8,29.96,North,0,0.0,1.1,62,0.00,,,0.00,WUHU216HW,2013-09-03 14:40:00,
2013-09-03 09:45:00,82.2,67.8,29.96,NNW,338,0.0,2.0,62,0.00,,,0.00,WUHU216HW,2013-09-03 14:45:00,
2013-09-03 09:50:00,82.5,68.1,29.96,North,0,0.0,2.0,62,0.00,,,0.00,WUHU216HW,2013-09-03 14:50:00,
2013-09-03 09:55:00,82.7,68.3,29.96,North,0,0.0,1.5,62,0.00,,,0.00,WUHU216HW,2013-09-03 14:55:00,
2013-09-03 10:00:00,82.9,68.5,29.96,NNW,338,0.0,0.0,62,0.00,,,0.00,WUHU216HW,2013-09-03 15:00:00,
2013-09-03 10:05:00,83.1,68.7,29.96,North,0,0.0,0.0,62,0.00,,,0.00,WUHU216HW,2013-09-03 15:05:00,
2013-09-03 10:10:00,83.3,68.4,29.96,North,0,0.0,0.0,61,0.00,,,0.00,WUHU216HW,2013-09-03 15:10:00,
2013-09-03 10:15:00,83.4,68.6,29.96,North,0,0.0,0.0,61,0.00,,,0.00,WUHU216HW,2013-09-03 15:15:00,
2013-09-03 10:20:00,84.0,69.1,29.96,NNE,23,0.0,0.0,61,0.00,,,0.00,WUHU216HW,2013-09-03 15:20:00,
2013-09-03 10:25:00,84.2,69.3,29.97,North,0,0.0,2.4,61,0.00,,,0.00,WUHU216HW,2013-09-03 15:25:00,
2013-09-03 10:30:00,84.5,69.2,29.97,North,0,0.0,2.4,60,0.00,,,0.00,WUHU216HW,2013-09-03 15:30:00,
2013-09-03 10:35:00,85.1,69.1,29.97,North,0,0.0,0.0,59,0.00,,,0.00,WUHU216HW,2013-09-03 15:35:00,
2013-09-03 10:40:00,85.2,68.3,29.97,NNE,23,0.0,4.6,57,0.00,,,0.00,WUHU216HW,2013-09-03 15:40:00,
2013-09-03 10:44:00,85.4,67.9,29.97,SE,135,0.0,4.6,56,0.00,,,0.00,WUHU216HW,2013-09-03 15:44:00,
2013-09-03 10:49:00,86.0,68.4,29.97,NNW,338,0.0,1.7,56,0.00,,,0.00,WUHU216HW,2013-09-03 15:49:00,
2013-09-03 10:54:00,86.1,68.5,29.97,East,90,0.0,1.7,56,0.00,,,0.00,WUHU216HW,2013-09-03 15:54:00,
2013-09-03 10:59:00,86.7,68.5,29.97,NNE,23,0.0,0.0,55,0.00,,,0.00,WUHU216HW,2013-09-03 15:59:00,
2013-09-03 11:04:00,86.9,68.2,29.97,NNW,338,0.0,0.0,54,0.00,,,0.00,WUHU216HW,2013-09-03 16:04:00,
2013-09-03 11:09:00,87.2,68.5,29.97,North,0,0.0,0.0,54,0.00,,,0.00,WUHU216HW,2013-09-03 16:09:00,
2013-09-03 11:15:00,87.6,68.3,29.97,North,0,0.0,0.0,52,0.00,,,0.00,WUHU216HW,2013-09-03 16:15:00,
2013-09-03 11:20:00,87.6,67.8,29.97,West,270,0.0,0.0,52,0.00,,,0.00,WUHU216HW,2013-09-03 16:20:00,
2013-09-03 11:25:00,88.1,67.7,29.97,WNW,293,0.0,0.0,51,0.00,,,0.00,WUHU216HW,2013-09-03 16:25:00,
2013-09-03 11:30:00,88.3,67.9,29.97,North,0,0.0,0.0,51,0.00,,,0.00,WUHU216HW,2013-09-03 16:30:00,
2013-09-03 11:35:00,88.7,68.8,29.97,NNE,23,0.0,0.0,52,0.00,,,0.00,WUHU216HW,2013-09-03 16:35:00,
2013-09-03 11:40:00,89.0,68.5,29.97,North,0,0.0,0.0,51,0.00,,,0.00,WUHU216HW,2013-09-03 16:40:00,
2013-09-03 11:45:00,89.2,68.2,29.97,North,0,0.0,0.0,50,0.00,,,0.00,WUHU216HW,2013-09-03 16:45:00,
2013-09-03 11:50:00,89.7,69.2,29.97,NNE,23,0.0,0.0,51,0.00,,,0.00,WUHU216HW,2013-09-03 16:50:00,
2013-09-03 11:55:00,90.1,69.0,29.97,North,0,0.0,0.0,50,0.00,,,0.00,WUHU216HW,2013-09-03 16:55:00,
2013-09-03 12:00:00,90.3,68.5,29.96,North,0,0.0,0.0,49,0.00,,,0.00,WUHU216HW,2013-09-03 17:00:00,
2013-09-03 12:05:00,90.6,68.2,29.97,NNW,338,0.0,0.0,48,0.00,,,0.00,WUHU216HW,2013-09-03 17:05:00,
2013-09-03 12:10:00,90.5,68.0,29.96,NW,315,0.0,0.0,48,0.00,,,0.00,WUHU216HW,2013-09-03 17:10:00,
2013-09-03 12:14:00,90.5,68.8,29.97,NNE,23,0.0,0.0,48,0.00,,,0.00,WUHU216HW,2013-09-03 17:14:00,
2013-09-03 12:19:00,91.5,69.0,29.96,NNE,23,0.0,0.0,48,0.00,,,0.00,WUHU216HW,2013-09-03 17:19:00,
2013-09-03 12:24:00,91.9,69.3,29.96,NNE,23,0.0,0.0,48,0.00,,,0.00,WUHU216HW,2013-09-03 17:24:00,
2013-09-03 12:29:00,92.3,68.8,29.96,ENE,68,0.0,0.0,47,0.00,,,0.00,WUHU216HW,2013-09-03 17:29:00,
2013-09-03 12:34:00,92.4,69.1,29.95,NNE,23,0.0,0.0,47,0.00,,,0.00,WUHU216HW,2013-09-03 17:34:00,
2013-09-03 12:39:00,92.4,68.5,29.96,WNW,293,0.0,0.0,46,0.00,,,0.00,WUHU216HW,2013-09-03 17:39:00,
2013-09-03 12:44:00,92.8,68.2,29.95,NNW,338,0.0,0.0,45,0.00,,,0.00,WUHU216HW,2013-09-03 17:44:00,
2013-09-03 12:49:00,92.8,68.2,29.95,West,270,0.0,0.0,45,0.00,,,0.00,WUHU216HW,2013-09-03 17:49:00,
2013-09-03 12:54:00,93.0,69.0,29.95,ENE,68,0.0,0.0,46,0.00,,,0.00,WUHU216HW,2013-09-03 17:54:00,
2013-09-03 12:59:00,93.3,68.7,29.95,WNW,293,0.0,5.1,45,0.00,,,0.00,WUHU216HW,2013-09-03 17:59:00,
2013-09-03 13:04:00,93.9,68.5,29.94,SSE,158,0.0,5.1,44,0.00,,,0.00,WUHU216HW,2013-09-03 18:04:00,
2013-09-03 13:09:00,94.2,68.9,29.94,North,0,0.0,0.0,44,0.00,,,0.00,WUHU216HW,2013-09-03 18:09:00,
2013-09-03 13:14:00,94.6,68.9,29.94,North,0,0.0,0.0,44,0.00,,,0.00,WUHU216HW,2013-09-03 18:14:00,
2013-09-03 13:17:00,94.8,68.7,29.94,North,0,0.0,0.0,43,0.00,,,0.00,WUHU216HW,2013-09-03 18:17:00,
2013-09-03 13:24:00,95.1,69.0,29.94,North,0,0.0,0.0,43,0.00,,,0.00,WUHU216HW,2013-09-03 18:24:00,
2013-09-03 13:31:00,94.8,68.7,29.94,WNW,293,0.0,0.0,43,0.00,,,0.00,WUHU216HW,2013-09-03 18:31:00,
2013-09-03 13:37:00,94.6,68.5,29.94,WNW,293,0.0,0.0,43,0.00,,,0.00,WUHU216HW,2013-09-03 18:37:00,
2013-09-03 13:44:00,95.1,69.0,29.93,WNW,293,0.0,0.0,43,0.00,,,0.00,WUHU216HW,2013-09-03 18:44:00,
2013-09-03 13:50:00,95.1,69.0,29.93,NNW,338,0.0,0.0,43,0.00,,,0.00,WUHU216HW,2013-09-03 18:50:00,
2013-09-03 13:57:00,95.7,68.9,29.93,West,270,0.0,0.2,42,0.00,,,0.00,WUHU216HW,2013-09-03 18:57:00,
2013-09-03 14:09:00,95.9,69.0,29.92,WNW,293,0.0,0.0,42,0.00,,,0.00,WUHU216HW,2013-09-03 19:09:00,
2013-09-03 14:14:00,96.0,69.2,29.92,ESE,113,0.0,0.0,42,0.00,,,0.00,WUHU216HW,2013-09-03 19:14:00,
2013-09-03 14:19:00,96.4,69.5,29.92,North,0,1.7,1.7,42,0.00,,,0.00,WUHU216HW,2013-09-03 19:19:00,
2013-09-03 14:24:00,96.0,69.2,29.92,ESE,113,0.0,1.7,42,0.00,,,0.00,WUHU216HW,2013-09-03 19:24:00,
2013-09-03 14:29:00,96.0,69.2,29.92,NNE,23,3.8,3.8,42,0.00,,,0.00,WUHU216HW,2013-09-03 19:29:00,
2013-09-03 14:34:00,95.7,68.9,29.92,NW,315,0.0,3.8,42,0.00,,,0.00,WUHU216HW,2013-09-03 19:34:00,
2013-09-03 14:39:00,95.9,68.3,29.92,NNE,23,0.0,3.8,41,0.00,,,0.00,WUHU216HW,2013-09-03 19:39:00,
2013-09-03 14:44:00,95.7,68.9,29.92,NE,45,0.0,0.0,42,0.00,,,0.00,WUHU216HW,2013-09-03 19:44:00,
2013-09-03 14:49:00,95.3,68.5,29.91,NE,45,0.0,0.0,42,0.00,,,0.00,WUHU216HW,2013-09-03 19:49:00,
2013-09-03 14:54:00,95.0,68.2,29.91,North,0,0.0,0.0,42,0.00,,,0.00,WUHU216HW,2013-09-03 19:54:00,
2013-09-03 14:59:00,94.8,68.0,29.91,North,0,0.0,0.0,42,0.00,,,0.00,WUHU216HW,2013-09-03 19:59:00,
2013-09-03 15:04:00,94.6,67.9,29.91,North,0,0.0,0.0,42,0.00,,,0.00,WUHU216HW,2013-09-03 20:04:00,
2013-09-03 15:09:00,94.2,67.5,29.91,East,90,0.0,0.0,42,0.00,,,0.00,WUHU216HW,2013-09-03 20:09:00,
2013-09-03 15:14:00,93.9,67.9,29.90,SE,135,0.0,0.0,43,0.00,,,0.00,WUHU216HW,2013-09-03 20:14:00,
2013-09-03 15:19:00,94.1,67.4,29.90,West,270,0.0,0.0,42,0.00,,,0.00,WUHU216HW,2013-09-03 20:19:00,
2013-09-03 15:24:00,94.1,67.4,29.90,West,270,0.0,0.0,42,0.00,,,0.00,WUHU216HW,2013-09-03 20:24:00,
2013-09-03 15:29:00,94.2,67.5,29.89,North,0,0.0,4.4,42,0.00,,,0.00,WUHU216HW,2013-09-03 20:29:00,
2013-09-03 15:34:00,94.4,67.7,29.90,NNE,23,0.0,4.4,42,0.00,,,0.00,WUHU216HW,2013-09-03 20:34:00,
2013-09-03 15:39:00,94.2,66.9,29.89,NNE,23,0.0,0.0,41,0.00,,,0.00,WUHU216HW,2013-09-03 20:39:00,
2013-09-03 15:44:00,94.2,66.9,29.89,West,270,0.0,0.0,41,0.00,,,0.00,WUHU216HW,2013-09-03 20:44:00,
2013-09-03 15:49:00,94.2,66.2,29.89,West,270,0.0,0.0,40,0.00,,,0.00,WUHU216HW,2013-09-03 20:49:00,
2013-09-03 15:54:00,94.2,65.4,29.89,North,0,0.0,0.0,39,0.00,,,0.00,WUHU216HW,2013-09-03 20:54:00,
2013-09-03 15:59:00,94.2,65.4,29.88,NNE,23,0.0,0.0,39,0.00,,,0.00,WUHU216HW,2013-09-03 20:59:00,
2013-09-03 16:04:00,94.2,65.4,29.88,West,270,0.0,0.0,39,0.00,,,0.00,WUHU216HW,2013-09-03 21:04:00,
2013-09-03 16:09:00,94.2,65.4,29.87,NW,315,0.0,0.0,39,0.00,,,0.00,WUHU216HW,2013-09-03 21:09:00,
2013-09-03 16:14:00,94.2,66.2,29.87,NW,315,0.0,0.0,40,0.00,,,0.00,WUHU216HW,2013-09-03 21:14:00,
2013-09-03 16:19:00,94.2,64.6,29.87,WNW,293,0.0,0.0,38,0.00,,,0.00,WUHU216HW,2013-09-03 21:19:00,
2013-09-03 16:24:00,94.2,65.4,29.87,WNW,293,0.0,0.0,39,0.00,,,0.00,WUHU216HW,2013-09-03 21:24:00,
2013-09-03 16:29:00,94.4,65.6,29.87,North,0,0.0,0.0,39,0.00,,,0.00,WUHU216HW,2013-09-03 21:29:00,
2013-09-03 16:34:00,94.6,65.7,29.87,North,0,0.0,0.0,39,0.00,,,0.00,WUHU216HW,2013-09-03 21:34:00,
2013-09-03 16:39:00,94.6,65.7,29.87,NNE,23,0.0,0.0,39,0.00,,,0.00,WUHU216HW,2013-09-03 21:39:00,
2013-09-03 16:44:00,94.6,64.9,29.87,NNW,338,0.0,0.0,38,0.00,,,0.00,WUHU216HW,2013-09-03 21:44:00,
2013-09-03 16:49:00,94.6,64.9,29.87,NNE,23,0.0,0.0,38,0.00,,,0.00,WUHU216HW,2013-09-03 21:49:00,
2013-09-03 16:54:00,94.6,64.9,29.87,NNW,338,0.0,0.0,38,0.00,,,0.00,WUHU216HW,2013-09-03 21:54:00,
2013-09-03 16:59:00,94.8,63.5,29.86,WNW,293,0.0,0.0,36,0.00,,,0.00,WUHU216HW,2013-09-03 21:59:00,
2013-09-03 17:04:00,94.8,64.3,29.86,NNW,338,0.0,0.0,37,0.00,,,0.00,WUHU216HW,2013-09-03 22:04:00,
2013-09-03 17:09:00,95.1,62.2,29.87,NNW,338,0.0,0.0,34,0.00,,,0.00,WUHU216HW,2013-09-03 22:09:00,
2013-09-03 17:14:00,95.1,63.0,29.87,West,270,0.0,0.0,35,0.00,,,0.00,WUHU216HW,2013-09-03 22:14:00,
2013-09-03 17:20:00,95.1,62.2,29.86,North,0,0.0,0.0,34,0.00,,,0.00,WUHU216HW,2013-09-03 22:20:00,
2013-09-03 17:25:00,95.1,62.2,29.86,NNW,338,0.0,0.0,34,0.00,,,0.00,WUHU216HW,2013-09-03 22:25:00,
2013-09-03 17:30:00,95.1,62.2,29.86,NW,315,0.0,0.0,34,0.00,,,0.00,WUHU216HW,2013-09-03 22:30:00,
2013-09-03 17:35:00,95.1,62.2,29.86,North,0,0.0,0.0,34,0.00,,,0.00,WUHU216HW,2013-09-03 22:35:00,
2013-09-03 17:40:00,95.1,62.2,29.86,NNW,338,0.0,0.0,34,0.00,,,0.00,WUHU216HW,2013-09-03 22:40:00,
2013-09-03 17:45:00,95.1,62.2,29.86,NW,315,0.0,0.0,34,0.00,,,0.00,WUHU216HW,2013-09-03 22:45:00,
2013-09-03 17:50:00,94.8,62.7,29.85,NW,315,0.0,0.0,35,0.00,,,0.00,WUHU216HW,2013-09-03 22:50:00,
2013-09-03 17:55:00,94.8,62.7,29.86,North,0,0.0,0.0,35,0.00,,,0.00,WUHU216HW,2013-09-03 22:55:00,
2013-09-03 18:00:00,94.8,62.7,29.86,North,0,0.0,4.4,35,0.00,,,0.00,WUHU216HW,2013-09-03 23:00:00,
2013-09-03 18:05:00,94.8,62.7,29.86,NNW,338,0.0,4.4,35,0.00,,,0.00,WUHU216HW,2013-09-03 23:05:00,
2013-09-03 18:10:00,94.8,62.7,29.86,NNW,338,0.0,0.0,35,0.00,,,0.00,WUHU216HW,2013-09-03 23:10:00,
2013-09-03 18:15:00,94.8,61.8,29.86,NNE,23,0.0,0.0,34,0.00,,,0.00,WUHU216HW,2013-09-03 23:15:00,
2013-09-03 18:20:00,94.8,61.8,29.86,NNE,23,0.0,0.0,34,0.00,,,0.00,WUHU216HW,2013-09-03 23:20:00,
2013-09-03 18:25:00,94.8,61.0,29.85,North,0,0.0,0.0,33,0.00,,,0.00,WUHU216HW,2013-09-03 23:25:00,
2013-09-03 18:30:00,94.8,61.8,29.85,North,0,0.0,0.0,34,0.00,,,0.00,WUHU216HW,2013-09-03 23:30:00,
2013-09-03 18:35:00,94.8,61.8,29.86,NNW,338,0.0,0.0,34,0.00,,,0.00,WUHU216HW,2013-09-03 23:35:00,
2013-09-03 18:40:00,94.8,61.8,29.86,NNW,338,0.0,0.0,34,0.00,,,0.00,WUHU216HW,2013-09-03 23:40:00,
2013-09-03 18:45:00,94.8,61.8,29.86,NNW,338,0.0,0.0,34,0.00,,,0.00,WUHU216HW,2013-09-03 23:45:00,
2013-09-03 18:50:00,95.0,62.8,29.85,NNW,338,0.0,0.0,35,0.00,,,0.00,WUHU216HW,2013-09-03 23:50:00,
2013-09-03 18:55:00,95.1,63.0,29.86,North,0,0.0,0.0,35,0.00,,,0.00,WUHU216HW,2013-09-03 23:55:00,
2013-09-03 19:00:00,95.1,63.0,29.86,NNW,338,0.0,0.0,35,0.00,,,0.00,WUHU216HW,2013-09-04 00:00:00,
2013-09-03 19:05:00,95.1,62.2,29.85,NNW,338,0.0,0.0,34,0.00,,,0.00,WUHU216HW,2013-09-04 00:05:00,
2013-09-03 19:10:00,95.3,63.1,29.86,NNW,338,0.0,0.0,35,0.00,,,0.00,WUHU216HW,2013-09-04 00:10:00,
2013-09-03 19:15:00,95.5,63.3,29.86,North,0,0.0,0.0,35,0.00,,,0.00,WUHU216HW,2013-09-04 00:15:00,
2013-09-03 19:20:00,95.5,62.5,29.86,NNW,338,0.0,0.0,34,0.00,,,0.00,WUHU216HW,2013-09-04 00:20:00,
2013-09-03 19:25:00,95.5,62.5,29.86,NNW,338,0.0,0.0,34,0.00,,,0.00,WUHU216HW,2013-09-04 00:25:00,
2013-09-03 19:30:00,95.1,63.0,29.86,NNW,338,0.0,0.0,35,0.00,,,0.00,WUHU216HW,2013-09-04 00:30:00,
2013-09-03 19:35:00,94.8,62.7,29.86,NNW,338,0.0,0.0,35,0.00,,,0.00,WUHU216HW,2013-09-04 00:35:00,
2013-09-03 19:40:00,94.6,62.5,29.87,North,0,0.0,0.0,35,0.00,,,0.00,WUHU216HW,2013-09-04 00:40:00,
2013-09-03 19:45:00,93.7,63.3,29.87,North,0,0.0,0.0,37,0.00,,,0.00,WUHU216HW,2013-09-04 00:45:00,
2013-09-03 19:50:00,93.0,63.5,29.87,North,0,0.0,0.0,38,0.00,,,0.00,WUHU216HW,2013-09-04 00:50:00,
2013-09-03 19:55:00,92.8,63.3,29.87,North,0,0.0,0.0,38,0.00,,,0.00,WUHU216HW,2013-09-04 00:55:00,
2013-09-03 20:00:00,92.1,63.5,29.87,North,0,0.0,0.0,39,0.00,,,0.00,WUHU216HW,2013-09-04 01:00:00,
2013-09-03 20:05:00,91.7,63.1,29.87,North,0,0.0,0.0,39,0.00,,,0.00,WUHU216HW,2013-09-04 01:05:00,
2013-09-03 20:10:00,91.5,62.2,29.87,North,0,0.0,0.0,38,0.00,,,0.00,WUHU216HW,2013-09-04 01:10:00,
2013-09-03 20:15:00,91.2,62.7,29.87,North,0,0.0,0.0,39,0.00,,,0.00,WUHU216HW,2013-09-04 01:15:00,
2013-09-03 20:20:00,91.0,62.5,29.87,North,0,0.0,0.0,39,0.00,,,0.00,WUHU216HW,2013-09-04 01:20:00,
2013-09-03 20:25:00,90.6,61.4,29.87,North,0,0.0,0.0,38,0.00,,,0.00,WUHU216HW,2013-09-04 01:25:00,
2013-09-03 20:30:00,90.3,61.9,29.87,North,0,0.0,0.0,39,0.00,,,0.00,WUHU216HW,2013-09-04 01:30:00,
2013-09-03 20:35:00,90.3,61.9,29.87,North,0,0.0,0.0,39,0.00,,,0.00,WUHU216HW,2013-09-04 01:35:00,
2013-09-03 20:40:00,90.1,61.7,29.88,North,0,0.0,0.0,39,0.00,,,0.00,WUHU216HW,2013-09-04 01:40:00,
2013-09-03 20:45:00,89.7,62.2,29.88,North,0,0.0,0.0,40,0.00,,,0.00,WUHU216HW,2013-09-04 01:45:00,
2013-09-03 20:50:00,89.4,61.9,29.88,North,0,0.0,0.0,40,0.00,,,0.00,WUHU216HW,2013-09-04 01:50:00,
2013-09-03 20:55:00,89.4,61.9,29.88,North,0,0.0,0.0,40,0.00,,,0.00,WUHU216HW,2013-09-04 01:55:00,
2013-09-03 21:00:00,89.2,61.7,29.89,North,0,0.0,0.0,40,0.00,,,0.00,WUHU216HW,2013-09-04 02:00:00,
2013-09-03 21:05:00,89.2,61.7,29.89,North,0,0.0,0.0,40,0.00,,,0.00,WUHU216HW,2013-09-04 02:05:00,
2013-09-03 21:10:00,88.8,59.8,29.89,North,0,0.0,0.0,38,0.00,,,0.00,WUHU216HW,2013-09-04 02:10:00,
2013-09-03 21:15:00,88.5,61.1,29.89,North,0,0.0,0.0,40,0.00,,,0.00,WUHU216HW,2013-09-04 02:15:00,
2013-09-03 21:20:00,88.3,61.0,29.89,North,0,0.0,0.0,40,0.00,,,0.00,WUHU216HW,2013-09-04 02:20:00,
2013-09-03 21:25:00,88.3,60.2,29.89,North,0,0.0,0.0,39,0.00,,,0.00,WUHU216HW,2013-09-04 02:25:00,
2013-09-03 21:30:00,88.3,59.4,29.89,North,0,0.0,0.0,38,0.00,,,0.00,WUHU216HW,2013-09-04 02:30:00,
2013-09-03 21:35:00,88.3,59.4,29.89,North,0,0.0,0.0,38,0.00,,,0.00,WUHU216HW,2013-09-04 02:35:00,
2013-09-03 21:40:00,88.3,59.4,29.89,North,0,0.0,0.0,38,0.00,,,0.00,WUHU216HW,2013-09-04 02:40:00,
2013-09-03 21:45:00,87.9,60.7,29.90,North,0,0.0,0.0,40,0.00,,,0.00,WUHU216HW,2013-09-04 02:45:00,
2013-09-03 21:50:00,87.9,61.3,29.90,North,0,0.0,0.0,41,0.00,,,0.00,WUHU216HW,2013-09-04 02:50:00,
2013-09-03 21:55:00,87.6,61.7,29.90,North,0,0.0,0.0,42,0.00,,,0.00,WUHU216HW,2013-09-04 02:55:00,
2013-09-03 22:00:00,87.4,62.1,29.90,North,0,0.0,0.0,43,0.00,,,0.00,WUHU216HW,2013-09-04 03:00:00,
2013-09-03 22:05:00,87.4,61.5,29.90,North,0,0.0,0.0,42,0.00,,,0.00,WUHU216HW,2013-09-04 03:05:00,
2013-09-03 22:10:00,87.2,61.3,29.90,North,0,0.0,0.0,42,0.00,,,0.00,WUHU216HW,2013-09-04 03:10:00,
2013-09-03 22:15:00,87.0,61.2,29.90,North,0,0.0,0.0,42,0.00,,,0.00,WUHU216HW,2013-09-04 03:15:00,
2013-09-03 22:20:00,87.0,61.2,29.91,North,0,0.0,0.0,42,0.00,,,0.00,WUHU216HW,2013-09-04 03:20:00,
2013-09-03 22:25:00,87.0,61.2,29.91,North,0,0.0,0.0,42,0.00,,,0.00,WUHU216HW,2013-09-04 03:25:00,
2013-09-03 22:30:00,86.9,61.0,29.91,North,0,0.0,0.0,42,0.00,,,0.00,WUHU216HW,2013-09-04 03:30:00,
2013-09-03 22:35:00,86.7,61.5,29.91,North,0,0.0,0.0,43,0.00,,,0.00,WUHU216HW,2013-09-04 03:35:00,
2013-09-03 22:40:00,86.7,61.5,29.90,North,0,0.0,0.0,43,0.00,,,0.00,WUHU216HW,2013-09-04 03:40:00,
2013-09-03 22:45:00,86.5,61.3,29.90,North,0,0.0,0.0,43,0.00,,,0.00,WUHU216HW,2013-09-04 03:45:00,
2013-09-03 22:50:00,86.3,61.2,29.90,North,0,0.0,0.0,43,0.00,,,0.00,WUHU216HW,2013-09-04 03:50:00,
2013-09-03 22:55:00,86.1,61.0,29.90,North,0,0.0,0.0,43,0.00,,,0.00,WUHU216HW,2013-09-04 03:55:00,
2013-09-03 23:00:00,86.1,61.6,29.90,North,0,0.0,0.0,44,0.00,,,0.00,WUHU216HW,2013-09-04 04:00:00,
2013-09-03 23:01:00,86.1,61.6,29.90,North,0,0.0,0.0,44,0.00,,,0.00,WUHU216HW,2013-09-04 04:01:00,
2013-09-03 23:02:00,85.8,61.3,29.90,North,0,0.0,0.0,44,0.00,,,0.00,WUHU216HW,2013-09-04 04:02:00,
2013-09-03 23:04:00,85.8,61.3,29.91,North,0,0.0,0.0,44,0.00,,,0.00,WUHU216HW,2013-09-04 04:04:00,
2013-09-03 23:09:00,85.8,60.7,29.90,North,0,0.0,0.0,43,0.00,,,0.00,WUHU216HW,2013-09-04 04:09:00,
2013-09-03 23:14:00,85.8,60.7,29.91,North,0,0.0,0.0,43,0.00,,,0.00,WUHU216HW,2013-09-04 04:14:00,
2013-09-03 23:19:00,85.6,60.5,29.91,North,0,0.0,0.0,43,0.00,,,0.00,WUHU216HW,2013-09-04 04:19:00,
2013-09-03 23:24:00,85.4,60.4,29.91,North,0,0.0,0.0,43,0.00,,,0.00,WUHU216HW,2013-09-04 04:24:00,
2013-09-03 23:29:00,85.4,60.4,29.91,North,0,0.0,0.0,43,0.00,,,0.00,WUHU216HW,2013-09-04 04:29:00,
2013-09-03 23:34:00,85.2,60.2,29.91,North,0,0.0,0.0,43,0.00,,,0.00,WUHU216HW,2013-09-04 04:34:00,
2013-09-03 23:39:00,85.2,60.2,29.91,North,0,0.0,0.0,43,0.00,,,0.00,WUHU216HW,2013-09-04 04:39:00,
2013-09-03 23:44:00,85.2,60.8,29.91,North,0,0.0,0.0,44,0.00,,,0.00,WUHU216HW,2013-09-04 04:44:00,
2013-09-03 23:49:00,85.1,60.7,29.91,North,0,0.0,0.0,44,0.00,,,0.00,WUHU216HW,2013-09-04 04:49:00,
2013-09-03 23:54:00,84.9,60.5,29.92,North,0,0.0,0.0,44,0.00,,,0.00,WUHU216HW,2013-09-04 04:54:00,
2013-09-03 23:59:00,84.9,60.5,29.91,North,0,0.0,0.0,44,0.00,,,0.00,WUHU216HW,2013-09-04 04:59:00,